Simultaneous Nadir Overpasses (SNOs) Predictions

Prediction of SNOs between GOES-17 and NOAA-19 Satellite Orbit:

Table of predicted SNOs for the next 14.0 days since TLE Epoch: 2/25/2023
Index Date Time (GOES-17) GOES-17 Lat,Lon NOAA-19 Lat,Lon Distance(km) Time Diff (sec)
1 02/26/2023 03:08:31 -0.00,-104.68 0.75,-101.43 371.33 80
2 02/28/2023 15:26:05 -0.01,-104.71 0.35,-106.23 173.91 80
3 03/01/2023 15:16:48 -0.01,-104.71 -0.34,-103.32 158.95 80
4 03/02/2023 15:04:49 -0.01,-104.71 -0.97,-100.40 491.85 80
5 03/04/2023 03:34:30 0.01,-104.69 -0.77,-108.16 395.24 80
6 03/05/2023 03:22:31 0.01,-104.69 -0.15,-105.23 62.35 80
7 03/06/2023 03:13:14 0.01,-104.70 0.54,-102.32 270.81 80
8 03/08/2023 15:30:47 -0.00,-104.73 0.53,-107.12 272.31 80
9 03/09/2023 15:21:28 -0.00,-104.74 -0.12,-104.20 61.06 80
10 03/10/2023 15:09:30 -0.00,-104.74 -0.77,-101.28 394.37 80
